Date String (YYYY-MM-DD hh:mm:ss) UTC,Instrument flags,absolute air pressure of the measurement (hPa),sample flow rate (lpm),inlet stack bypass flow (lpm),air temperature of the measurement (°C),ambient temperature measured by the external sensor (°C),aerosol sample conditioner tube jacket temperature (°C),OPC LED temperature (°C),internal box temperature (°C),relative humidity of the measurement (%),span deviation,mass concentration of particles derived from Lorenz-Mie calculation of OPC scattering (μg/m³),mass concentration of particles derived from Lorenz-Mie calculation of OPC scattering (μg/m³),mass concentration of particles derived from Lorenz-Mie calculation of OPC scattering (μg/m³)
DateTimeUTC,F1_M11,P_M11,Q1_M11,Q2_M11,T1_M11,T2_M11,T3_M11,T4_M11,T5_M11,U1_M11,ZSPAN_M11,X2_M11,X0_M11,X1_M11
2024-01-12 05:00:00,SystemResetWarning,0819.5,4.99,000.00,019.1,018.9,000.0,027.3,020.3,6.8,0000.0,0004.88,0011.40,0003.86
2024-01-12 05:01:00,SystemResetWarning,0819.5,5.01,000.00,019.1,018.7,000.0,027.3,020.1,6.8,0000.0,0004.83,0011.33,0003.83
2024-01-12 05:02:00,SystemResetWarning,0819.4,5.01,000.00,019.0,018.5,000.0,027.3,020.0,6.8,0000.0,0004.83,0012.29,0003.82
2024-01-12 05:03:00,SystemResetWarning,0819.4,4.99,000.00,019.0,018.3,000.0,027.3,020.0,6.9,0000.0,0004.84,0012.59,0003.81
2024-01-12 05:04:00,SystemResetWarning,0819.4,4.99,000.00,018.9,018.1,000.0,027.4,020.0,6.9,0000.0,0004.77,0012.58,0003.79
2024-01-12 05:05:00,SystemResetWarning,0819.3,5.00,000.00,018.9,017.9,000.0,027.4,020.0,6.9,0000.0,0004.72,0012.79,0003.79
2024-01-12 05:06:00,SystemResetWarning,0819.3,5.00,000.00,018.9,017.8,000.0,027.4,020.0,6.9,0000.0,0004.68,0012.72,0003.79
2024-01-12 05:07:00,SystemResetWarning,0819.3,5.01,000.00,018.9,017.7,000.0,027.4,020.0,6.9,0000.0,0004.63,0012.67,0003.79
2024-01-12 05:08:00,SystemResetWarning,0819.3,5.01,000.00,018.9,017.8,000.0,027.3,020.2,6.9,0000.0,0004.57,0013.15,0003.79
2024-01-12 05:09:00,SystemResetWarning,0819.4,4.99,000.00,019.0,018.5,000.0,027.3,020.7,6.9,0000.0,0004.62,0013.00,0003.81
2024-01-12 05:10:00,SystemResetWarning,0819.4,5.00,000.00,019.1,019.0,000.0,027.3,020.8,6.9,0000.0,0004.67,0012.46,0003.83
2024-01-12 05:11:00,SystemResetWarning,0819.4,5.00,000.00,019.1,018.8,000.0,027.3,020.2,7.0,0000.0,0004.69,0012.53,0003.84
2024-01-12 05:12:00,SystemResetWarning,0819.4,4.98,000.00,019.0,018.5,000.0,027.3,020.0,7.0,0000.0,0004.70,0012.45,0003.86
2024-01-12 05:13:00,SystemResetWarning,0819.4,5.01,000.00,019.0,018.3,000.0,027.3,020.0,7.0,0000.0,0004.70,0011.96,0003.89
2024-01-12 05:14:00,SystemResetWarning,0819.3,5.00,000.00,018.9,018.0,000.0,027.4,020.0,7.1,0000.0,0004.72,0011.62,0003.92
2024-01-12 05:15:00,SystemResetWarning,0819.5,5.00,000.00,018.9,017.8,000.0,027.4,020.0,7.1,0000.0,0004.71,0012.16,0003.94
2024-01-12 05:16:00,SystemResetWarning,0819.5,4.99,000.00,018.9,017.7,000.0,027.4,020.0,7.2,0001.1,0004.75,0011.92,0003.96
2024-01-12 05:17:00,SystemResetWarning,0819.4,5.01,000.00,018.9,018.1,000.0,027.3,020.4,7.2,0002.7,0004.75,0011.78,0003.98
2024-01-12 05:18:00,SystemResetWarning,0819.4,5.01,000.00,019.1,018.9,000.0,027.3,020.8,7.2,0003.3,0004.78,0011.60,0003.99
2024-01-12 05:19:00,SystemResetWarning,0819.4,4.99,000.00,019.1,019.0,000.0,027.3,020.6,7.1,0003.4,0004.87,0011.47,0004.01
2024-01-12 05:20:00,SystemResetWarning,0819.4,4.99,000.00,019.1,018.8,000.0,027.3,020.1,7.2,0000.6,0004.89,0012.63,0004.02
2024-01-12 05:21:00,SystemResetWarning,0819.4,5.01,000.00,019.0,018.6,000.0,027.3,020.0,7.2,0000.1,0004.87,0012.34,0004.02
2024-01-12 05:22:00,SystemResetWarning,0819.5,5.01,000.00,019.0,018.3,000.0,027.3,020.0,7.2,0003.1,0004.87,0012.23,0004.03
2024-01-12 05:23:00,SystemResetWarning,0819.4,5.00,000.00,018.9,018.2,000.0,027.4,020.0,7.2,0004.0,0004.88,0012.73,0004.04
2024-01-12 05:24:00,SystemResetWarning,0819.4,5.00,000.00,018.9,018.0,000.0,027.4,020.0,7.2,0001.5,0004.89,0012.68,0004.04
2024-01-12 05:25:00,SystemResetWarning,0819.4,4.99,000.00,018.9,017.9,000.0,027.4,020.0,7.2,0000.0,0004.93,0013.13,0004.03
2024-01-12 05:26:00,SystemResetWarning,0819.4,5.00,000.00,018.9,017.8,000.0,027.4,020.0,7.2,0000.0,0004.96,0013.22,0004.02
2024-01-12 05:27:00,SystemResetWarning,0819.4,5.01,000.00,018.9,017.7,000.0,027.4,020.0,7.2,0000.0,0004.96,0013.85,0004.02
2024-01-12 05:28:00,SystemResetWarning,0819.4,5.01,000.00,018.9,017.7,000.0,027.4,020.0,7.1,0000.0,0004.98,0015.15,0004.04
2024-01-12 05:29:00,SystemResetWarning,0819.5,5.01,000.00,018.9,017.9,000.0,027.3,020.3,7.1,0000.0,0004.98,0016.43,0004.06
2024-01-12 05:30:00,SystemResetWarning,0819.5,5.00,000.00,019.0,018.6,000.0,027.3,020.7,7.1,0000.0,0004.92,0016.15,0004.04
2024-01-12 05:31:00,SystemResetWarning,0819.5,4.99,000.00,019.1,019.0,000.0,027.3,020.6,7.0,0000.0,0004.87,0014.84,0004.04
2024-01-12 05:32:00,SystemResetWarning,0819.5,4.99,000.00,019.1,018.8,000.0,027.3,020.2,7.0,0000.0,0004.93,0014.81,0004.02
2024-01-12 05:33:00,SystemResetWarning,0819.5,4.99,000.00,019.0,018.6,000.0,027.3,020.0,7.1,0000.0,0004.95,0015.19,0004.01
2024-01-12 05:34:00,SystemResetWarning,0819.5,5.00,000.00,019.0,018.4,000.0,027.3,020.0,7.1,0000.0,0004.96,0014.88,0004.00
2024-01-12 05:35:00,SystemResetWarning,0819.5,5.01,000.00,018.9,018.3,000.0,027.3,020.0,7.1,0000.0,0004.96,0015.72,0003.99
2024-01-12 05:36:00,SystemResetWarning,0819.5,5.00,000.00,018.9,018.1,000.0,027.3,020.0,7.1,0000.9,0004.91,0016.00,0003.97
2024-01-12 05:37:00,SystemResetWarning,0819.4,5.00,000.00,018.9,018.0,000.0,027.3,020.0,7.1,0002.1,0004.87,0015.28,0003.97
2024-01-12 05:38:00,SystemResetWarning,0819.4,5.00,000.00,018.9,017.9,000.0,027.4,020.0,7.2,0001.8,0004.84,0015.69,0003.96
2024-01-12 05:39:00,SystemResetWarning,0819.3,4.99,000.00,018.9,017.7,000.0,027.4,020.1,7.2,0002.5,0004.82,0014.79,0003.94
2024-01-12 05:40:00,SystemResetWarning,0819.3,5.00,000.00,018.9,018.1,000.0,027.3,020.5,7.2,0002.5,0004.82,0013.52,0003.92
2024-01-12 05:41:00,SystemResetWarning,0819.3,5.00,000.00,019.0,018.8,000.0,027.3,020.8,7.1,0002.0,0004.79,0013.33,0003.92
2024-01-12 05:42:00,SystemResetWarning,0819.3,4.99,000.00,019.1,018.9,000.0,027.3,020.5,7.1,0001.8,0004.79,0013.50,0003.92
2024-01-12 05:43:00,SystemResetWarning,0819.4,4.99,000.00,019.0,018.7,000.0,027.3,020.0,7.2,0001.8,0004.75,0013.28,0003.94
2024-01-12 05:44:00,SystemResetWarning,0819.4,4.99,000.00,019.0,018.4,000.0,027.3,020.0,7.2,0002.2,0004.75,0013.00,0003.96
2024-01-12 05:45:00,SystemResetWarning,0819.4,5.00,000.00,019.0,018.2,000.0,027.3,020.0,7.2,0002.3,0004.74,0012.80,0003.99
2024-01-12 05:46:00,SystemResetWarning,0819.3,5.00,000.00,018.9,018.1,000.0,027.3,020.0,7.2,0002.4,0004.73,0012.10,0004.01
2024-01-12 05:47:00,SystemResetWarning,0819.3,5.00,000.00,018.9,018.0,000.0,027.4,020.0,7.2,0002.7,0004.75,0011.11,0004.03
2024-01-12 05:48:00,SystemResetWarning,0819.2,5.00,000.00,018.9,017.8,000.0,027.4,020.0,7.2,0002.8,0004.76,0011.62,0004.05
2024-01-12 05:49:00,SystemResetWarning,0819.2,5.00,000.00,018.9,017.7,000.0,027.4,020.0,7.2,0003.1,0004.78,0011.68,0004.07
2024-01-12 05:50:00,SystemResetWarning,0819.1,5.00,000.00,018.9,018.0,000.0,027.3,020.4,7.2,0000.6,0004.83,0011.83,0004.09
2024-01-12 05:51:00,SystemResetWarning,0819.2,5.01,000.00,019.0,018.8,000.0,027.3,020.8,7.1,0000.5,0004.84,0011.87,0004.12
2024-01-12 05:52:00,SystemResetWarning,0819.3,4.99,000.00,019.1,018.9,000.0,027.3,020.5,7.1,0001.0,0004.87,0011.66,0004.13
2024-01-12 05:53:00,SystemResetWarning,0819.3,5.00,000.00,019.0,018.6,000.0,027.3,020.1,7.2,0000.0,0004.92,0011.74,0004.14
2024-01-12 05:54:00,SystemResetWarning,0819.4,5.00,000.00,019.0,018.3,000.0,027.3,020.0,7.2,0000.0,0004.94,0012.72,0004.15
2024-01-12 05:55:00,SystemResetWarning,0819.3,4.99,000.00,018.9,018.1,000.0,027.3,020.0,7.2,0000.0,0004.93,0013.30,0004.15
2024-01-12 05:56:00,SystemResetWarning,0819.3,5.00,000.00,018.9,018.0,000.0,027.3,020.0,7.2,0000.0,0004.92,0014.47,0004.15
2024-01-12 05:57:00,SystemResetWarning,0819.3,5.00,000.00,018.9,017.8,000.0,027.3,020.0,7.2,0000.6,0004.93,0014.44,0004.15
2024-01-12 05:58:00,SystemResetWarning,0819.3,5.00,000.00,018.9,017.7,000.0,027.3,020.0,7.2,0000.5,0004.92,0014.26,0004.15
2024-01-12 05:59:00,SystemResetWarning,0819.3,5.01,000.00,018.9,018.0,000.0,027.3,020.4,7.1,0002.1,0005.02,0014.17,0004.16
